Find Shi Jian 6/4A

NORAD ID: 37180 Int'l Des: 2010-051 Owner: CASC Country: CN operational
LEOCIRCULARRETROGRADESSO

Current View

Loading 3D Globe...

About Shi Jian 6/4A

Description loading...

Upcoming Passes

Passes for default location (London). Set your location on the main map for personalized predictions.

Altitude History

Loading altitude history...

Two-Line Element Set

1 37180U 10051B 26149.60288821 .00001141 00000-0 98486-4 0 9999
2 37180 97.8683 154.8250 0010397 11.7699 348.3765 14.99271848852891
Epoch: May 29, 2026 • Age: 13 hours

Current Status

Altitude 583.4 km
Velocity 7.57 km/s
Sub-Earth Point -46.95°S, 129.93°W
Launch Date Oct 6, 2010
Age 15.6 years
Type other

Technical Details

Classification Payload
Mass 350.00 kg
Dry Mass 350.00 kg
Total Mass 350.00 kg
Length 1.00 m
Diameter 1.00 m
Span 4.00 m
Shape Box + 2 Pan
Manufacturer DFHZ
Bus Type CAST-968
Phase Status In Orbit
Owner/State CASC/CN

Most Searched